Regional Weather Roundup
Issued by NWS

Home | Current Version | Previous Version | Text Only | Print | Product List | Glossary Off
Versions: 1 2 3 4 5 6 7 8 9 10 11 12 13 14 15 16 17 18 19 20 21 22 23 24 25 26 27 28 29 30 31 32 33 34 35 36 37 38 39 40 41 42 43 44 45 46 47 48 49 50

496
ASUS45 KCYS 230910
RWRWY

WYOMING REGIONAL WEATHER ROUNDUP
NATIONAL WEATHER SERVICE CHEYENNE WY
300 AM MDT MON MAY 23 2016

NOTE:  "FAIR" INDICATES FEW OR NO CLOUDS BELOW 12,000 FEET
WITH NO SIGNIFICANT WEATHER AND/OR OBSTRUCTIONS TO VISIBILITY.

WYZ001-231000-
YELLOWSTONE NATIONAL PARK

CITY           SKY/WX    TMP DP  RH WIND       PRES   REMARKS
LK YELLOWSTONE   N/A     32  26  78 VRB3      29.95F
W YELLOWSTONE  NOT AVBL

$$
WYZ002>013-054>058-071-098>099-231000-
NORTHERN WYOMING

CITY           SKY/WX    TMP DP  RH WIND       PRES   REMARKS
JACKSON        FAIR      32  30  93 S5        29.95F WCI  27
CODY           FAIR      48  25  40 SW8G16    29.83F
GREYBULL       FAIR      50  26  39 SW3       29.80F
WORLAND        FAIR      43  26  51 E12       29.80F
SHERIDAN       FAIR      41  28  60 S3        29.76S
BUFFALO        FAIR      50  22  33 SE3       29.80S
GILLETTE       FAIR      36  30  79 S8        29.79S WCI  30
HULETT         FAIR      46  34  61 CALM      29.80R
NEWCASTLE      FAIR      41  32  70 CALM      29.82S

$$
WYZ014>020-022>026-101>103-231000-
CENTRAL WYOMING

CITY           SKY/WX    TMP DP  RH WIND       PRES   REMARKS
BIG PINEY      FAIR      28  25  88 E3        29.99F
PINEDALE       FAIR      28  27  93 MISG      30.00F
DUBOIS         FAIR      32  25  74 NW14      29.92F WCI  22
LANDER         FAIR      41  23  48 SE5       29.87S
RIVERTON       FAIR      40  23  50 W10       29.89S WCI  33
CASPER         FAIR      42  29  59 SW10G18   29.89R
DOUGLAS        FAIR      40  31  70 W6        29.88F

$$
WYZ021-027>030-104>119-231000-
SOUTHERN WYOMING

CITY           SKY/WX    TMP DP  RH WIND       PRES   REMARKS
EVANSTON       FAIR      33  28  81 S7        30.00F WCI  27
KEMMERER         N/A     32  28  86 NW3       30.00F
FORT BRIDGER   SUNNY     34  34 100 S10       30.03F WCI  26
ROCK SPRINGS   FAIR      34  31  88 W9        30.00F WCI  27
DIXON          FAIR      31  29  91 CALM      30.04S
RAWLINS        FAIR      35  29  78 W7        29.98S WCI  29
SARATOGA       FAIR      32  28  86 SW3       30.02R
LARAMIE        FAIR      32  27  81 E9        29.98F WCI  24
CHEYENNE       FAIR      44  27  51 W16       29.94S
TORRINGTON     NOT AVBL
PINE BLUFFS    CLOUDY    46  32  57 N8        29.93R

$$




USA.gov is the U.S. government's official web portal to all federal, state and local government web resources and services.